Flag for Finland Weather past 2 weeks in Helsinki, Finland

Now
72 °F

Thundershowers. Broken clouds.


Feels Like: 75 °F
Forecast: 64 / 78 °F
Wind: 7 mph from North

Location: Helsinki Malmi Airport

Current Time: Jul 29, 2014 at 5:25:59 PM

Latest Report: Jul 29, 2014 at 4:50 PM


Visibility: N/A

Pressure: 29.83 "Hg

Humidity: 69%

Dew point: 61 °F

Location of HelsinkiLocation

Historic Weather in Helsinki — Graph

°F

Helsinki temperature yesterday

Maximum temperature yesterday: 86 °F (at 4:50 PM)
Minimum temperature yesterday: 63 °F (at 3:50 AM)
Average temperature yesterday: 75 °F

Past Weeks' High & Low Weather Summary

 TemperatureHumidityPressure
High86 °F (Jul 28, 4:50 PM)100% (Jul 15, 12:20 AM)30.24 "Hg (Jul 15, 12:20 AM)
Low54 °F (Jul 17, 3:20 AM)33% (Jul 28, 5:07 PM)29.80 "Hg (Jul 29, 1:20 PM)
Average70 °F71%30.07 "Hg
* Reported Jul 14 4:20 PM — Jul 29 4:20 PM, Helsinki, Weather by CustomWeather, © 2014

Note: Actual official high and low records may vary slightly from our data, if they occured in-between our weather recording intervals... More about our weather records

Advertising

Helsinki weather history for previous 24 hours

 ConditionsComfort  
Time TempWeatherWind HumidityBarometerVisibility
4:20 PM
Jul 29
79 °FThundershowers. Scattered clouds.10 mph61%29.80 "HgN/A
3:50 PM81 °FThundershowers. Scattered clouds.15 mph58%29.80 "HgN/A
3:20 PM79 °FThundershowers. Scattered clouds.16 mph61%29.80 "HgN/A
2:50 PM79 °FThundershowers. Scattered clouds.17 mph61%29.80 "HgN/A
2:20 PM79 °FThundershowers. Scattered clouds.14 mph61%29.80 "HgN/A
1:50 PM81 °FThundershowers. Passing clouds.13 mph54%29.80 "HgN/A
1:20 PM81 °FThundershowers. Scattered clouds.10 mph58%29.80 "HgN/A
12:50 PM79 °FThundershowers. Scattered clouds.10 mph65%29.83 "HgN/A
12:20 PM79 °FScattered clouds.8 mph65%29.83 "HgN/A
11:50 AM77 °FPartly sunny.6 mph74%29.83 "HgN/A
11:20 AM75 °FPartly sunny.7 mph74%29.83 "HgN/A
10:50 AM75 °FPartly sunny.6 mph74%29.83 "HgN/A
10:20 AM75 °FSunny.3 mph69%29.83 "Hg10 mi
9:50 AM75 °FPassing clouds.6 mph69%29.83 "HgN/A
9:20 AM73 °FPassing clouds.5 mph74%29.83 "HgN/A
8:50 AM73 °FPassing clouds.5 mph78%29.83 "HgN/A
8:20 AM73 °FSunny.3 mph78%29.83 "Hg10 mi
7:50 AM73 °FSunny.1 mph78%29.83 "Hg10 mi
7:20 AM70 °FSunny.No wind88%29.83 "Hg10 mi
6:50 AM68 °FSunny.No wind88%29.86 "Hg10 mi
6:20 AM64 °FSunny.No wind100%29.86 "Hg10 mi
5:50 AM64 °FSunny.1 mph100%29.86 "Hg6 mi
5:20 AM64 °FFog.No wind100%29.86 "Hg2 mi
4:50 AM64 °FClear.1 mph100%29.86 "Hg10 mi
4:20 AM64 °FClear.No wind100%29.86 "Hg1 mi
3:50 AM64 °FFog.No wind100%29.86 "Hg3 mi
3:20 AM66 °FClear.No wind94%29.86 "Hg10 mi
2:50 AM70 °FClear.2 mph88%29.86 "Hg10 mi
2:20 AM72 °FClear.2 mph83%29.86 "Hg10 mi
1:50 AM73 °FClear.3 mph78%29.89 "Hg10 mi
1:20 AM73 °FClear.3 mph83%29.86 "Hg10 mi
12:20 AM75 °FPassing clouds.5 mph78%29.89 "HgN/A
11:50 PM
Jul 28
73 °FClear.6 mph83%29.89 "Hg10 mi
11:20 PM73 °FClear.3 mph83%29.89 "Hg10 mi
10:50 PM75 °FSunny.5 mph78%29.89 "Hg10 mi
10:20 PM75 °FSunny.7 mph78%29.89 "Hg10 mi
9:50 PM77 °FSunny.5 mph69%29.89 "Hg10 mi
9:20 PM77 °FSunny.3 mph74%29.89 "Hg10 mi
8:50 PM77 °FSunny.5 mph69%29.89 "Hg10 mi
8:20 PM79 °FSunny.7 mph65%29.89 "Hg10 mi
7:50 PM81 °FPassing clouds.7 mph58%29.89 "HgN/A
7:20 PM81 °FPassing clouds.7 mph54%29.89 "HgN/A
6:50 PM81 °FScattered clouds.8 mph58%29.89 "HgN/A
6:20 PM84 °FScattered clouds.12 mph37%29.89 "HgN/A
5:50 PM84 °FScattered clouds.9 mph40%29.92 "HgN/A
5:20 PM86 °FPassing clouds.12 mph33%29.92 "HgN/A
5:07 PM86 °FPassing clouds.10 mph33%29.92 "HgN/A
Weather by CustomWeather, © 2014

See weather overviewHow to use our weather pages